Marion Regional, IL

6:05 PM CDT on June 27, 2017 (GMT -0500)
Williamson County Regional

Weather History for KMWA - December, 2013

Change the Weather History Date:

Saturday, December 14, 2013

  Actual Average Record
Temperature  
Mean Temperature 34 °F -  
Max Temperature 35 °F 43 °F 68 °F (1971)
Min Temperature 30 °F 25 °F 2 °F (1985)
Degree Days  
Heating Degree Days 32    
Moisture  
Dew Point 32 °F    
Average Humidity 91    
Maximum Humidity 100    
Minimum Humidity 75    
Precipitation  
Precipitation 0.29 in - - ()
Sea Level Pressure  
Sea Level Pressure 29.95 in    
Wind  
Wind Speed 7 mph (North)    
Max Wind Speed 17 mph    
Max Gust Speed 22 mph    
Visibility 6 miles    
Events Rain , Snow    
Averages and records for this station are not official NWS values.
T = Trace of Precipitation, MM = Missing Value Source: NWS Daily Summary

Daily Weather History Graph

Daily Weather History Graph

Search for Another Location

Airport or City:

Trip Planner

Search our weather history database for the weather conditions in past years. The results will help you decide how hot, cold, wet, or windy it might be!

Date:

Astronomy

Dec. 14, 2013 Rise Set
Actual Time 7:03 AM CST 4:38 PM CST
Civil Twilight 6:34 AM CST 5:07 PM CST
Nautical Twilight 6:01 AM CST 5:40 PM CST
Astronomical Twilight 5:29 AM CST 6:12 PM CST
Moon 2:58 PM CST (12/14) 4:26 AM CST (12/14)
Length of Visible Light 10h 33m
Length of Day
9h 34m
Waxing Gibbous, 94% of the Moon is Illuminated
Dec 14
Waxing Gibbous
Dec 17
Full
Dec 25
Last Quarter
Jan 1
New
Jan 7
First Quarter

Hourly Weather History & Observations

Time (CST) Temp. Windchill Dew Point Humidity Pressure Visibility Wind Dir Wind Speed Gust Speed Precip Events Conditions
12:15 AM 35.6 °F 30.7 °F 33.8 °F 93% 29.99 in 7.0 mi ESE 5.8 mph - N/A   Drizzle
12:35 AM 35.6 °F 29.9 °F 33.8 °F 93% 29.98 in 7.0 mi ESE 6.9 mph - N/A   Light Drizzle
12:55 AM 33.8 °F 28.6 °F 33.8 °F 100% 29.98 in 5.0 mi ESE 5.8 mph - N/A Rain Light Rain
1:15 AM 33.8 °F 27.7 °F 33.8 °F 100% 29.96 in 5.0 mi ESE 6.9 mph - 0.01 in Rain Light Rain
1:35 AM 33.8 °F 28.6 °F 33.8 °F 100% 29.95 in 5.0 mi ESE 5.8 mph - 0.02 in Rain Light Rain
1:55 AM 35.6 °F 29.9 °F 33.8 °F 93% 29.94 in 5.0 mi East 6.9 mph - 0.04 in   Overcast
2:15 AM 35.6 °F 29.9 °F 33.8 °F 93% 29.94 in 4.0 mi ESE 6.9 mph - 0.04 in Rain Light Rain
2:35 AM 35.6 °F 31.7 °F 33.8 °F 93% 29.94 in 4.0 mi East 4.6 mph - 0.07 in Rain Rain
2:55 AM 35.6 °F 30.7 °F 33.8 °F 93% 29.92 in 4.0 mi East 5.8 mph - 0.11 in Rain Rain
3:15 AM 35.6 °F 29.9 °F 33.8 °F 93% 29.89 in 5.0 mi East 6.9 mph - 0.02 in Rain Light Rain
3:35 AM 35.6 °F 29.2 °F 33.8 °F 93% 29.86 in 5.0 mi East 8.1 mph - 0.03 in Rain Light Rain
3:55 AM 35.6 °F 32.8 °F 33.8 °F 93% 29.87 in 7.0 mi East 3.5 mph - 0.04 in   Overcast
4:15 AM 35.6 °F 32.8 °F 33.8 °F 93% 29.85 in 5.0 mi East 3.5 mph - 0.02 in Rain Light Rain
4:35 AM 35.6 °F 31.7 °F 33.8 °F 93% 29.84 in 5.0 mi East 4.6 mph - 0.04 in Rain Rain
4:55 AM 35.6 °F 32.8 °F 33.8 °F 93% 29.85 in 5.0 mi East 3.5 mph - 0.04 in Rain Light Rain
5:15 AM 33.8 °F - 33.8 °F 100% 29.85 in 3.0 mi Calm Calm - 0.02 in Rain Rain
5:35 AM 35.6 °F 32.8 °F 33.8 °F 93% 29.85 in 3.0 mi ENE 3.5 mph - 0.04 in Rain Rain
5:55 AM 33.8 °F 29.6 °F 33.8 °F 100% 29.83 in 5.0 mi ENE 4.6 mph - 0.05 in   Overcast
6:15 AM 33.8 °F 30.8 °F 33.8 °F 100% 29.83 in 5.0 mi ENE 3.5 mph - 0.01 in Snow Light Snow
6:52 AM 33.8 °F 28.6 °F 33.8 °F 100% 29.84 in 10.5 mi NE 5.8 mph - N/A Rain Light Rain
6:53 AM 33.8 °F 28.6 °F 33.8 °F 100% 29.84 in 10.5 mi NE 5.8 mph - N/A Rain Light Rain
7:16 AM 33.8 °F 28.6 °F 33.8 °F 100% 29.84 in 2.0 mi North 5.8 mph - N/A Rain Light Rain
7:52 AM 33.8 °F 28.6 °F 33.8 °F 100% 29.83 in 5.5 mi North 5.8 mph - N/A Rain Light Rain
8:29 AM 33.8 °F 27.7 °F 33.8 °F 100% 29.85 in 0.8 mi NW 6.9 mph - N/A Rain Light Rain
8:53 AM 33.8 °F - 33.8 °F 100% 29.86 in 0.8 mi Calm Calm - N/A Rain Light Rain
9:58 AM 35.6 °F 29.9 °F 33.8 °F 93% 29.85 in 2.0 mi NNW 6.9 mph - N/A Rain Light Rain
10:53 AM 35.6 °F 28.6 °F 35.6 °F 100% 29.85 in 3.0 mi NW 9.2 mph - N/A   Overcast
11:54 AM 35.6 °F 26.6 °F 33.8 °F 93% 29.85 in 10.0 mi NW 13.8 mph - N/A   Overcast
12:52 PM 35.6 °F 27.5 °F 32.0 °F 87% 29.86 in 10.0 mi WNW 11.5 mph - N/A   Overcast
1:57 PM 35.6 °F 27.5 °F 32.0 °F 87% 29.88 in 10.0 mi WNW 11.5 mph - N/A   Overcast
2:57 PM 35.6 °F 27.5 °F 32.0 °F 87% 29.92 in 10.0 mi NW 11.5 mph - N/A   Overcast
3:57 PM 35.6 °F 25.5 °F 32.0 °F 87% 29.95 in 10.0 mi NW 17.3 mph - N/A   Overcast
4:53 PM 35.6 °F 25.5 °F 32.0 °F 87% 29.97 in 10.0 mi NNW 17.3 mph - N/A   Overcast
5:58 PM 35.6 °F 25.5 °F 32.0 °F 87% 30.00 in 10.0 mi NNW 17.3 mph - N/A   Overcast
6:55 PM 33.8 °F 27.0 °F 30.2 °F 87% 30.03 in 10.0 mi NNW 8.1 mph 18.4 mph N/A   Overcast
7:15 PM 33.8 °F 25.3 °F 30.2 °F 87% 30.03 in 10.0 mi NNW 11.5 mph 21.9 mph N/A   Overcast
7:35 PM 33.8 °F 27.0 °F 30.2 °F 87% 30.04 in 7.0 mi NNW 8.1 mph 18.4 mph N/A   Overcast
7:55 PM 33.8 °F 26.4 °F 30.2 °F 87% 30.04 in 7.0 mi NW 9.2 mph 18.4 mph N/A   Overcast
8:15 PM 33.8 °F 25.3 °F 30.2 °F 87% 30.05 in 5.0 mi NW 11.5 mph 19.6 mph N/A   Overcast
8:35 PM 32.0 °F 23.0 °F 30.2 °F 93% 30.06 in 5.0 mi NW 11.5 mph 19.6 mph N/A   Overcast
8:55 PM 32.0 °F 25.6 °F 30.2 °F 93% 30.07 in 5.0 mi NW 6.9 mph - N/A   Overcast
9:15 PM 32.0 °F 23.6 °F 28.4 °F 87% 30.09 in 5.0 mi NW 10.4 mph 18.4 mph N/A   Overcast
9:35 PM 32.0 °F 23.6 °F 28.4 °F 87% 30.09 in 7.0 mi NW 10.4 mph 18.4 mph N/A   Overcast
9:55 PM 32.0 °F 24.2 °F 28.4 °F 87% 30.10 in 7.0 mi NW 9.2 mph 20.7 mph N/A   Overcast
10:15 PM 32.0 °F 23.6 °F 26.6 °F 80% 30.10 in 7.0 mi NNW 10.4 mph 16.1 mph N/A   Overcast
10:35 PM 32.0 °F 23.6 °F 26.6 °F 80% 30.11 in 10.0 mi NW 10.4 mph 17.3 mph N/A   Overcast
10:55 PM 32.0 °F 23.6 °F 26.6 °F 80% 30.11 in 10.0 mi NW 10.4 mph 16.1 mph N/A   Overcast
11:15 PM 32.0 °F 23.6 °F 24.8 °F 75% 30.12 in 10.0 mi NNW 10.4 mph 17.3 mph N/A   Overcast
11:35 PM 32.0 °F 26.4 °F 24.8 °F 75% 30.12 in 10.0 mi NNW 5.8 mph 17.3 mph N/A   Overcast
11:55 PM 30.2 °F 22.6 °F 24.8 °F 80% 30.12 in 10.0 mi NNW 8.1 mph - N/A   Overcast